| time (UTC) | temp F | wind direction | speed MPH | gust MPH | rain 1hr in | rain 24hr in | rain mn in | humidity % | barometer mb |
| 20260503205019 | 56 | 232 | 12.0 | 16.0 | 0.00 | 0.00 | 0.00 | 85 | 1013.2 |
| 20260503204949 | 56 | 229 | 12.0 | 14.0 | 0.00 | 0.00 | 0.00 | 8 | 1013.1 |
| 20260503204425 | 56 | 229 | 11.0 | 13.0 | 0.00 | 0.00 | 0.00 | 85 | 1013.3 |
| 20260503203949 | 56 | 232 | 10.0 | 12.0 | 0.00 | 0.00 | 0.00 | 8 | 1013.2 |
| 20260503203825 | 56 | 233 | 10.0 | 12.0 | 0.00 | 0.00 | 0.00 | 85 | 1013.3 |
| 20260503203237 | 56 | 227 | 13.0 | 16.0 | 0.00 | 0.00 | 0.00 | 84 | 1013.1 |
| 20260503202949 | 55 | 228 | 12.0 | 14.0 | 0.00 | 0.00 | 0.00 | 8 | 1013.1 |
| 20260503202620 | 56 | 227 | 12.0 | 14.0 | 0.00 | 0.00 | 0.00 | 84 | 1013.2 |
| 20260503202020 | 56 | 229 | 11.0 | 14.0 | 0.00 | 0.00 | 0.00 | 84 | 1013.3 |
| 20260503201949 | 55 | 230 | 10.0 | 12.0 | 0.00 | 0.00 | 0.00 | 8 | 1013.1 |
| 20260503201419 | 56 | 232 | 10.0 | 11.0 | 0.00 | 0.00 | 0.00 | 85 | 1013.3 |
| 20260503200949 | 55 | 228 | 9.0 | 12.0 | 0.00 | 0.00 | 0.00 | 8 | 1013.3 |
| 20260503200820 | 56 | 229 | 10.0 | 12.0 | 0.00 | 0.00 | 0.00 | 85 | 1013.4 |
| 20260503200220 | 56 | 227 | 11.0 | 14.0 | 0.00 | 0.00 | 0.00 | 85 | 1013.6 |
| 20260503195949 | 55 | 227 | 11.0 | 14.0 | 0.00 | 0.00 | 0.00 | 8 | 1013.5 |
| 20260503195640 | 56 | 228 | 10.0 | 13.0 | 0.00 | 0.00 | 0.00 | 86 | 1013.6 |
| 20260503195017 | 56 | 224 | 9.0 | 13.0 | 0.00 | 0.00 | 0.00 | 86 | 1013.5 |
| 20260503194417 | 56 | 225 | 10.0 | 13.0 | 0.00 | 0.00 | 0.00 | 85 | 1013.6 |
| 20260503193949 | 55 | 219 | 10.0 | 13.0 | 0.00 | 0.00 | 0.00 | 8 | 1013.5 |
| 20260503193817 | 56 | 220 | 11.0 | 13.0 | 0.00 | 0.00 | 0.00 | 86 | 1013.6 |
| 20260503193241 | 56 | 226 | 12.0 | 15.0 | 0.00 | 0.00 | 0.00 | 87 | 1013.6 |
| 20260503192949 | 55 | 222 | 12.0 | 14.0 | 0.00 | 0.00 | 0.00 | 8 | 1013.4 |
| 20260503192638 | 56 | 219 | 13.0 | 14.0 | 0.00 | 0.00 | 0.00 | 87 | 1013.5 |
| 20260503192017 | 56 | 223 | 12.0 | 15.0 | 0.00 | 0.00 | 0.00 | 87 | 1013.3 |
| 20260503191949 | 56 | 221 | 12.0 | 14.0 | 0.00 | 0.00 | 0.00 | 8 | 1013.2 |
| 20260503191421 | 56 | 216 | 11.0 | 13.0 | 0.00 | 0.00 | 0.00 | 87 | 1013.4 |
| 20260503190949 | 55 | 218 | 12.0 | 14.0 | 0.00 | 0.00 | 0.00 | 8 | 1013.5 |
| 20260503190821 | 56 | 218 | 12.0 | 14.0 | 0.00 | 0.00 | 0.00 | 88 | 1013.6 |
| 20260503190218 | 55 | 225 | 10.0 | 13.0 | 0.00 | 0.00 | 0.00 | 88 | 1013.7 |
| 20260503185949 | 55 | 221 | 12.0 | 14.0 | 0.00 | 0.00 | 0.00 | 8 | 1013.6 |
| 20260503185618 | 56 | 224 | 13.0 | 15.0 | 0.00 | 0.00 | 0.00 | 88 | 1013.6 |
| 20260503185018 | 55 | 224 | 11.0 | 14.0 | 0.00 | 0.00 | 0.00 | 89 | 1013.7 |
| 20260503184949 | 55 | 223 | 11.0 | 15.0 | 0.00 | 0.00 | 0.00 | 8 | 1013.6 |
| 20260503184418 | 55 | 223 | 11.0 | 13.0 | 0.00 | 0.00 | 0.00 | 90 | 1013.7 |
| 20260503183949 | 55 | 227 | 10.0 | 11.0 | 0.00 | 0.00 | 0.00 | 8 | 1013.7 |
| 20260503183818 | 55 | 228 | 10.0 | 12.0 | 0.00 | 0.00 | 0.00 | 90 | 1013.8 |
| 20260503183239 | 55 | 230 | 9.0 | 11.0 | 0.00 | 0.00 | 0.00 | 90 | 1013.7 |
| 20260503182949 | 54 | 230 | 9.0 | 11.0 | 0.00 | 0.00 | 0.00 | 9 | 1013.6 |
| 20260503182706 | 55 | 232 | 9.0 | 10.0 | 0.00 | 0.00 | 0.00 | 90 | 1013.7 |
| 20260503182107 | 55 | 231 | 8.0 | 10.0 | 0.00 | 0.00 | 0.00 | 91 | 1013.5 |
| 20260503181949 | 54 | 231 | 7.0 | 10.0 | 0.00 | 0.00 | 0.00 | 9 | 1013.1 |
| 20260503181422 | 55 | 229 | 8.0 | 9.0 | 0.00 | 0.00 | 0.00 | 91 | 1013.5 |
| 20260503180949 | 54 | 236 | 7.0 | 9.0 | 0.00 | 0.00 | 0.00 | 9 | 1012.9 |
| 20260503180819 | 55 | 237 | 8.0 | 10.0 | 0.00 | 0.00 | 0.00 | 91 | 1013.1 |
| 20260503180219 | 55 | 253 | 8.0 | 10.0 | 0.00 | 0.00 | 0.00 | 91 | 1013.7 |
| 20260503175949 | 54 | 250 | 6.0 | 8.0 | 0.00 | 0.00 | 0.00 | 9 | 1013.0 |
| 20260503175619 | 55 | 244 | 7.0 | 9.0 | 0.00 | 0.00 | 0.00 | 91 | 1012.9 |
| 20260503175019 | 54 | 252 | 6.0 | 9.0 | 0.00 | 0.00 | 0.00 | 91 | 1013.4 |
| 20260503174949 | 53 | 254 | 6.0 | 7.0 | 0.00 | 0.00 | 0.00 | 9 | 1013.4 |
| 20260503174439 | 54 | 259 | 6.0 | 7.0 | 0.00 | 0.00 | 0.00 | 91 | 1013.5 |
| 20260503173949 | 53 | 254 | 6.0 | 7.0 | 0.00 | 0.00 | 0.00 | 9 | 1013.3 |
| 20260503173820 | 54 | 255 | 6.0 | 8.0 | 0.00 | 0.00 | 0.00 | 91 | 1013.4 |
| 20260503173225 | 54 | 252 | 6.0 | 8.0 | 0.00 | 0.00 | 0.00 | 92 | 1013.3 |
| 20260503172949 | 53 | 235 | 5.0 | 9.0 | 0.00 | 0.00 | 0.00 | 9 | 1013.0 |
| 20260503172620 | 54 | 246 | 6.0 | 8.0 | 0.00 | 0.00 | 0.00 | 92 | 1013.1 |
| 20260503172016 | 54 | 244 | 6.0 | 8.0 | 0.00 | 0.00 | 0.00 | 92 | 1013.2 |
| 20260503171440 | 54 | 241 | 5.0 | 7.0 | 0.00 | 0.00 | 0.00 | 93 | 1013.2 |
| 20260503170949 | 53 | 232 | 5.0 | 7.0 | 0.00 | 0.00 | 0.00 | 9 | 1013.0 |
| 20260503170820 | 54 | 233 | 5.0 | 8.0 | 0.00 | 0.00 | 0.00 | 93 | 1013.1 |
| 20260503170223 | 54 | 236 | 5.0 | 6.0 | 0.00 | 0.00 | 0.00 | 93 | 1013.2 |
| 20260503150831 | 54 | 195 | 3.0 | 4.0 | 0.00 | 0.00 | 0.00 | 89 | 1013.0 |
| 20260503150231 | 54 | 182 | 2.0 | 5.0 | 0.00 | 0.00 | 0.00 | 89 | 1012.9 |
| 20260503140220 | 55 | 255 | 7.0 | 9.0 | 0.00 | 0.00 | 0.00 | 88 | 1012.2 |
| 20260503130949 | 54 | 272 | 6.0 | 6.0 | 0.00 | 0.00 | 0.00 | 8 | 1011.5 |
| 20260503130821 | 54 | 273 | 6.0 | 7.0 | 0.00 | 0.00 | 0.00 | 88 | 1011.7 |
| 20260503130221 | 55 | 259 | 6.0 | 7.0 | 0.00 | 0.00 | 0.00 | 88 | 1011.5 |
| 20260503120222 | 55 | 276 | 5.0 | 6.0 | 0.00 | 0.00 | 0.00 | 89 | 1011.6 |
| 20260503110817 | 55 | 261 | 8.0 | 9.0 | 0.00 | 0.00 | 0.00 | 88 | 1011.7 |
| 20260503110229 | 54 | 272 | 8.0 | 9.0 | 0.00 | 0.00 | 0.00 | 88 | 1011.6 |
| 20260503100238 | 54 | 279 | 10.0 | 11.0 | 0.00 | 0.00 | 0.00 | 89 | 1011.6 |
| 20260503090219 | 54 | 275 | 9.0 | 11.0 | 0.00 | 0.00 | 0.00 | 89 | 1012.0 |
| 20260503081417 | 54 | 288 | 7.0 | 10.0 | 0.00 | 0.00 | 0.00 | 89 | 1012.6 |
| 20260503080949 | 54 | 288 | 6.0 | 8.0 | 0.00 | 0.00 | 0.00 | 8 | 1012.5 |
| 20260503080838 | 54 | 289 | 6.0 | 9.0 | 0.00 | 0.00 | 0.00 | 89 | 1012.6 |
| 20260503080218 | 55 | 290 | 6.0 | 9.0 | 0.00 | 0.00 | 0.00 | 89 | 1012.7 |
| 20260503072618 | 55 | 295 | 6.0 | 8.0 | 0.00 | 0.00 | 0.00 | 89 | 1012.5 |
| 20260503072019 | 55 | 303 | 7.0 | 9.0 | 0.00 | 0.00 | 0.00 | 89 | 1012.5 |
| 20260503071949 | 54 | 303 | 7.0 | 9.0 | 0.00 | 0.00 | 0.00 | 8 | 1012.4 |
| 20260503071418 | 55 | 308 | 6.0 | 9.0 | 0.00 | 0.00 | 0.00 | 89 | 1012.5 |
| 20260503070950 | 54 | 293 | 5.0 | 8.0 | 0.00 | 0.00 | 0.00 | 8 | 1012.4 |
| 20260503070818 | 55 | 293 | 5.0 | 9.0 | 0.00 | 0.00 | 0.00 | 89 | 1012.5 |
| 20260503070219 | 55 | 290 | 7.0 | 10.0 | 0.00 | 0.00 | 0.00 | 89 | 1012.5 |
| 20260503060219 | 54 | 294 | 6.0 | 9.0 | 0.00 | 0.00 | 0.00 | 89 | 1012.8 |
| 20260503055020 | 54 | 293 | 6.0 | 9.0 | 0.00 | 0.00 | 0.00 | 89 | 1012.9 |
| 20260503054949 | 54 | 291 | 7.0 | 9.0 | 0.00 | 0.00 | 0.00 | 8 | 1012.8 |
| 20260503054417 | 55 | 291 | 7.0 | 9.0 | 0.00 | 0.00 | 0.00 | 89 | 1013.0 |
| 20260503053949 | 54 | 284 | 7.0 | 10.0 | 0.00 | 0.00 | 0.00 | 8 | 1012.9 |
| 20260503053817 | 55 | 285 | 8.0 | 10.0 | 0.00 | 0.00 | 0.00 | 89 | 1013.0 |
| 20260503053217 | 55 | 296 | 7.0 | 9.0 | 0.00 | 0.00 | 0.00 | 89 | 1013.1 |
| 20260503052949 | 54 | 285 | 6.0 | 7.0 | 0.00 | 0.00 | 0.00 | 8 | 1013.0 |
| 20260503052621 | 55 | 285 | 7.0 | 9.0 | 0.00 | 0.00 | 0.00 | 89 | 1013.1 |
| 20260503052020 | 55 | 290 | 7.0 | 10.0 | 0.00 | 0.00 | 0.00 | 89 | 1013.1 |
| 20260503051949 | 54 | 294 | 6.0 | 9.0 | 0.00 | 0.00 | 0.00 | 8 | 1013.0 |
| 20260503051421 | 55 | 288 | 7.0 | 10.0 | 0.00 | 0.00 | 0.00 | 89 | 1013.1 |
| 20260503050949 | 54 | 300 | 5.0 | 8.0 | 0.00 | 0.00 | 0.00 | 8 | 1013.0 |
| 20260503050838 | 55 | 300 | 6.0 | 8.0 | 0.00 | 0.00 | 0.00 | 89 | 1013.1 |
| 20260503050224 | 55 | 296 | 6.0 | 9.0 | 0.00 | 0.00 | 0.00 | 89 | 1013.1 |
| 20260503045949 | 54 | 288 | 7.0 | 9.0 | 0.00 | 0.00 | 0.00 | 8 | 1012.9 |
| 20260503045618 | 55 | 288 | 7.0 | 9.0 | 0.00 | 0.00 | 0.00 | 89 | 1013.1 |
| 20260503045018 | 55 | 292 | 7.0 | 10.0 | 0.00 | 0.00 | 0.00 | 89 | 1013.1 |
| 20260503044949 | 54 | 301 | 7.0 | 10.0 | 0.00 | 0.00 | 0.00 | 8 | 1013.0 |
| 20260503044418 | 55 | 304 | 7.0 | 9.0 | 0.00 | 0.00 | 0.00 | 89 | 1013.1 |
| 20260503043949 | 54 | 295 | 7.0 | 11.0 | 0.00 | 0.00 | 0.00 | 8 | 1012.9 |
| 20260503043818 | 55 | 295 | 7.0 | 11.0 | 0.00 | 0.00 | 0.00 | 89 | 1013.1 |
| 20260503043238 | 55 | 287 | 9.0 | 11.0 | 0.00 | 0.00 | 0.00 | 89 | 1013.0 |
| 20260503042949 | 54 | 297 | 6.0 | 9.0 | 0.00 | 0.00 | 0.00 | 8 | 1012.9 |
| 20260503042633 | 55 | 294 | 8.0 | 10.0 | 0.00 | 0.00 | 0.00 | 89 | 1013.0 |
| 20260503042030 | 55 | 291 | 7.0 | 10.0 | 0.00 | 0.00 | 0.00 | 90 | 1012.9 |
| 20260503041949 | 0 | 276 | 7.0 | 7.0 | 0.00 | 0.00 | 0.00 | 100 | |
| 20260503041422 | 55 | 297 | 7.0 | 9.0 | 0.00 | 0.00 | 0.00 | 90 | 1012.9 |
| 20260503040949 | 54 | 303 | 8.0 | 9.0 | 0.00 | 0.00 | 0.00 | 8 | 1012.8 |
| 20260503040822 | 55 | 304 | 8.0 | 10.0 | 0.00 | 0.00 | 0.00 | 90 | 1012.9 |
| 20260503040231 | 54 | 297 | 8.0 | 10.0 | 0.00 | 0.00 | 0.00 | 90 | 1012.8 |
| 20260503035949 | 54 | 289 | 7.0 | 9.0 | 0.00 | 0.00 | 0.00 | 8 | 1012.7 |
| 20260503035619 | 54 | 291 | 7.0 | 9.0 | 0.00 | 0.00 | 0.00 | 90 | 1012.9 |
| 20260503035019 | 54 | 291 | 8.0 | 11.0 | 0.00 | 0.00 | 0.00 | 90 | 1012.8 |
| 20260503034422 | 54 | 290 | 8.0 | 9.0 | 0.00 | 0.00 | 0.00 | 90 | 1012.7 |
| 20260503033949 | 54 | 286 | 9.0 | 11.0 | 0.00 | 0.00 | 0.00 | 8 | 1012.6 |
| 20260503033819 | 54 | 287 | 9.0 | 11.0 | 0.00 | 0.00 | 0.00 | 90 | 1012.7 |
| 20260503033239 | 55 | 284 | 10.0 | 12.0 | 0.00 | 0.00 | 0.00 | 90 | 1012.6 |
| 20260503032949 | 54 | 289 | 8.0 | 11.0 | 0.00 | 0.00 | 0.00 | 8 | 1012.5 |
| 20260503032619 | 55 | 293 | 7.0 | 9.0 | 0.00 | 0.00 | 0.00 | 89 | 1012.6 |
| 20260503032019 | 55 | 292 | 7.0 | 11.0 | 0.00 | 0.00 | 0.00 | 89 | 1012.5 |
| 20260503031949 | 54 | 298 | 6.0 | 9.0 | 0.00 | 0.00 | 0.00 | 8 | 1012.4 |
| 20260503031420 | 54 | 298 | 8.0 | 12.0 | 0.00 | 0.00 | 0.00 | 89 | 1012.4 |
| 20260503030949 | 54 | 297 | 8.0 | 12.0 | 0.00 | 0.00 | 0.00 | 8 | 1012.2 |
| 20260503030820 | 54 | 298 | 8.0 | 13.0 | 0.00 | 0.00 | 0.00 | 89 | 1012.3 |
| 20260503030220 | 54 | 293 | 7.0 | 10.0 | 0.00 | 0.00 | 0.00 | 89 | 1012.3 |
| 20260503025949 | 54 | 290 | 9.0 | 13.0 | 0.00 | 0.00 | 0.00 | 8 | 1012.1 |
| 20260503025620 | 54 | 287 | 9.0 | 12.0 | 0.00 | 0.00 | 0.00 | 89 | 1012.2 |
| 20260503025017 | 54 | 286 | 10.0 | 13.0 | 0.00 | 0.00 | 0.00 | 89 | 1012.2 |
| 20260503024417 | 54 | 281 | 10.0 | 13.0 | 0.00 | 0.00 | 0.00 | 89 | 1012.3 |
| 20260503023949 | 54 | 287 | 10.0 | 11.0 | 0.00 | 0.00 | 0.00 | 8 | 1012.1 |
| 20260503023817 | 54 | 287 | 10.0 | 12.0 | 0.00 | 0.00 | 0.00 | 89 | 1012.2 |
| 20260503023221 | 54 | 286 | 10.0 | 12.0 | 0.00 | 0.00 | 0.00 | 89 | 1012.3 |
| 20260503023123 | 54 | 284 | 9.0 | 12.0 | 0.00 | 0.00 | 0.00 | 8 | 1012.2 |
| 20260503022949 | 54 | 284 | 9.0 | 12.0 | 0.00 | 0.00 | 0.00 | 8 | 1012.2 |
| 20260503022620 | 54 | 287 | 10.0 | 12.0 | 0.00 | 0.00 | 0.00 | 88 | 1012.3 |
| 20260503022021 | 54 | 286 | 10.0 | 12.0 | 0.00 | 0.00 | 0.00 | 88 | 1012.3 |
| 20260503021949 | 54 | 284 | 9.0 | 11.0 | 0.00 | 0.00 | 0.00 | 8 | 1012.2 |
| 20260503021418 | 54 | 285 | 9.0 | 11.0 | 0.00 | 0.00 | 0.00 | 88 | 1012.3 |
| 20260503020949 | 54 | 283 | 10.0 | 11.0 | 0.00 | 0.00 | 0.00 | 8 | 1012.2 |
| 20260503020818 | 54 | 284 | 10.0 | 12.0 | 0.00 | 0.00 | 0.00 | 88 | 1012.3 |
| 20260503020218 | 54 | 280 | 11.0 | 13.0 | 0.00 | 0.00 | 0.00 | 88 | 1012.4 |
| 20260503015949 | 54 | 280 | 10.0 | 12.0 | 0.00 | 0.00 | 0.00 | 8 | 1012.3 |
| 20260503015618 | 55 | 280 | 11.0 | 13.0 | 0.00 | 0.00 | 0.00 | 88 | 1012.5 |
| 20260503015018 | 55 | 281 | 11.0 | 13.0 | 0.00 | 0.00 | 0.00 | 88 | 1012.5 |
| 20260503014949 | 54 | 277 | 10.0 | 12.0 | 0.00 | 0.00 | 0.00 | 8 | 1012.4 |
| 20260503014421 | 55 | 278 | 11.0 | 13.0 | 0.00 | 0.00 | 0.00 | 88 | 1012.5 |
| 20260503013949 | 54 | 277 | 10.0 | 12.0 | 0.00 | 0.00 | 0.00 | 8 | 1012.3 |
| 20260503013821 | 54 | 277 | 10.0 | 12.0 | 0.00 | 0.00 | 0.00 | 88 | 1012.5 |
| 20260503013230 | 54 | 273 | 10.0 | 12.0 | 0.00 | 0.00 | 0.00 | 8 | 1012.4 |
| 20260503013221 | 54 | 278 | 10.0 | 12.0 | 0.00 | 0.00 | 0.00 | 88 | 1012.5 |
| 20260503012949 | 54 | 273 | 10.0 | 12.0 | 0.00 | 0.00 | 0.00 | 8 | 1012.4 |
| 20260503012619 | 54 | 272 | 10.0 | 12.0 | 0.00 | 0.00 | 0.00 | 88 | 1012.5 |
| 20260503012019 | 55 | 273 | 11.0 | 13.0 | 0.00 | 0.00 | 0.00 | 87 | 1012.5 |
| 20260503011949 | 54 | 272 | 10.0 | 11.0 | 0.00 | 0.00 | 0.00 | 8 | 1012.4 |
| 20260503011419 | 55 | 278 | 11.0 | 13.0 | 0.00 | 0.00 | 0.00 | 87 | 1012.6 |
| 20260503010949 | 54 | 273 | 9.0 | 11.0 | 0.00 | 0.00 | 0.00 | 8 | 1012.5 |
| 20260503010819 | 55 | 274 | 9.0 | 11.0 | 0.00 | 0.00 | 0.00 | 87 | 1012.6 |
| 20260503010219 | 55 | 275 | 10.0 | 12.0 | 0.00 | 0.00 | 0.00 | 87 | 1012.6 |
| 20260503005949 | 54 | 278 | 10.0 | 12.0 | 0.00 | 0.00 | 0.00 | 8 | 1012.5 |
| 20260503005639 | 54 | 282 | 10.0 | 13.0 | 0.00 | 0.00 | 0.00 | 87 | 1012.6 |
| 20260503005040 | 54 | 285 | 11.0 | 12.0 | 0.00 | 0.00 | 0.00 | 87 | 1012.6 |
| 20260503004949 | 54 | 281 | 10.0 | 12.0 | 0.00 | 0.00 | 0.00 | 8 | 1012.5 |
| 20260503004419 | 54 | 282 | 10.0 | 12.0 | 0.00 | 0.00 | 0.00 | 87 | 1012.6 |
| 20260503003949 | 54 | 283 | 9.0 | 10.0 | 0.00 | 0.00 | 0.00 | 8 | 1012.5 |
| 20260503003819 | 54 | 283 | 9.0 | 11.0 | 0.00 | 0.00 | 0.00 | 88 | 1012.7 |
| 20260503003222 | 54 | 276 | 11.0 | 12.0 | 0.00 | 0.00 | 0.00 | 88 | 1012.7 |
| 20260503002949 | 0 | 277 | 10.0 | 10.0 | 0.00 | 0.00 | 0.00 | 100 | |
| 20260503002619 | 54 | 274 | 11.0 | 13.0 | 0.00 | 0.00 | 0.00 | 88 | 1012.7 |
| 20260503002039 | 54 | 273 | 11.0 | 14.0 | 0.00 | 0.00 | 0.00 | 88 | 1012.6 |
| 20260503001949 | 54 | 272 | 10.0 | 11.0 | 0.00 | 0.00 | 0.00 | 8 | 1012.6 |
| 20260503001420 | 54 | 271 | 11.0 | 13.0 | 0.00 | 0.00 | 0.00 | 88 | 1012.7 |
| 20260503000949 | 54 | 275 | 11.0 | 12.0 | 0.00 | 0.00 | 0.00 | 8 | 1012.7 |
| 20260503000840 | 54 | 275 | 11.0 | 13.0 | 0.00 | 0.00 | 0.00 | 88 | 1012.8 |
| 20260503000218 | 54 | 271 | 11.0 | 14.0 | 0.00 | 0.00 | 0.00 | 88 | 1012.7 |
| 20260502235949 | 54 | 264 | 10.0 | 12.0 | 0.00 | 0.00 | 0.00 | 8 | 1012.7 |
| 20260502235617 | 54 | 271 | 10.0 | 12.0 | 0.00 | 0.00 | 0.00 | 88 | 1012.8 |
| 20260502235018 | 54 | 266 | 10.0 | 12.0 | 0.00 | 0.00 | 0.00 | 88 | 1012.8 |
| 20260502234949 | 54 | 274 | 9.0 | 11.0 | 0.00 | 0.00 | 0.00 | 8 | 1012.7 |
| 20260502234420 | 54 | 277 | 10.0 | 13.0 | 0.00 | 0.00 | 0.00 | 88 | 1012.8 |
| 20260502233949 | 54 | 267 | 10.0 | 13.0 | 0.00 | 0.00 | 0.00 | 8 | 1012.8 |
| 20260502233820 | 54 | 268 | 11.0 | 14.0 | 0.00 | 0.00 | 0.00 | 89 | 1012.9 |
| 20260502233240 | 54 | 270 | 10.0 | 12.0 | 0.00 | 0.00 | 0.00 | 88 | 1012.8 |
| 20260502232949 | 54 | 260 | 10.0 | 12.0 | 0.00 | 0.00 | 0.00 | 8 | 1012.7 |
| 20260502232721 | 54 | 266 | 11.0 | 12.0 | 0.00 | 0.00 | 0.00 | 88 | 1012.9 |
| 20260502232018 | 54 | 261 | 10.0 | 12.0 | 0.00 | 0.00 | 0.00 | 88 | 1013.0 |
| 20260502231949 | 54 | 264 | 10.0 | 14.0 | 0.00 | 0.00 | 0.00 | 8 | 1012.9 |
| 20260502231419 | 54 | 254 | 9.0 | 13.0 | 0.00 | 0.00 | 0.00 | 89 | 1013.1 |
| 20260502230949 | 54 | 270 | 10.0 | 12.0 | 0.00 | 0.00 | 0.00 | 8 | 1013.0 |
| 20260502230845 | 54 | 270 | 11.0 | 13.0 | 0.00 | 0.00 | 0.00 | 88 | 1013.2 |
| 20260502230218 | 54 | 260 | 11.0 | 13.0 | 0.00 | 0.00 | 0.00 | 88 | 1013.0 |
| 20260502225949 | 54 | 265 | 9.0 | 10.0 | 0.00 | 0.00 | 0.00 | 8 | 1013.1 |
| 20260502225618 | 54 | 261 | 11.0 | 14.0 | 0.00 | 0.00 | 0.00 | 88 | 1013.2 |
| 20260502225018 | 54 | 257 | 9.0 | 11.0 | 0.00 | 0.00 | 0.00 | 88 | 1013.3 |
| 20260502224949 | 54 | 260 | 9.0 | 11.0 | 0.00 | 0.00 | 0.00 | 8 | 1013.2 |
| 20260502224421 | 54 | 264 | 9.0 | 10.0 | 0.00 | 0.00 | 0.00 | 88 | 1013.5 |
| 20260502223949 | 54 | 258 | 8.0 | 9.0 | 0.00 | 0.00 | 0.00 | 8 | 1013.2 |
| 20260502223821 | 54 | 258 | 8.0 | 9.0 | 0.00 | 0.00 | 0.00 | 87 | 1013.4 |
| 20260502223222 | 54 | 261 | 8.0 | 9.0 | 0.00 | 0.00 | 0.00 | 87 | 1013.5 |
| 20260502222949 | 53 | 257 | 7.0 | 8.0 | 0.00 | 0.00 | 0.00 | 8 | 1013.5 |
| 20260502222621 | 54 | 263 | 8.0 | 10.0 | 0.00 | 0.00 | 0.00 | 87 | 1013.6 |
| 20260502222021 | 54 | 262 | 8.0 | 9.0 | 0.00 | 0.00 | 0.00 | 88 | 1013.9 |
| 20260502221949 | 53 | 255 | 8.0 | 10.0 | 0.00 | 0.00 | 0.00 | 8 | 1013.8 |
| 20260502221420 | 54 | 263 | 8.0 | 9.0 | 0.00 | 0.00 | 0.00 | 88 | 1014.1 |
| 20260502220949 | 53 | 273 | 9.0 | 10.0 | 0.00 | 0.00 | 0.00 | 8 | 1014.0 |
| 20260502220820 | 54 | 273 | 9.0 | 10.0 | 0.00 | 0.00 | 0.00 | 89 | 1014.1 |
| 20260502220219 | 54 | 286 | 10.0 | 12.0 | 0.00 | 0.00 | 0.00 | 88 | 1014.1 |
| 20260502215949 | 53 | 284 | 9.0 | 12.0 | 0.00 | 0.00 | 0.00 | 8 | 1014.0 |
| 20260502215619 | 54 | 290 | 11.0 | 14.0 | 0.00 | 0.00 | 0.00 | 88 | 1014.2 |
| 20260502215020 | 54 | 287 | 11.0 | 15.0 | 0.00 | 0.00 | 0.00 | 87 | 1014.1 |
| 20260502214949 | 54 | 284 | 11.0 | 13.0 | 0.00 | 0.00 | 0.00 | 8 | 1013.9 |
| 20260502214421 | 54 | 287 | 11.0 | 13.0 | 0.00 | 0.00 | 0.00 | 87 | 1014.1 |
| 20260502213949 | 54 | 271 | 9.0 | 12.0 | 0.00 | 0.00 | 0.00 | 8 | 1013.8 |
| 20260502213820 | 54 | 272 | 10.0 | 13.0 | 0.00 | 0.00 | 0.00 | 87 | 1013.9 |
| 20260502213401 | 54 | 268 | 10.0 | 12.0 | 0.00 | 0.00 | 0.00 | 87 | 1013.9 |
| 20260502213038 | 54 | 266 | 10.0 | 12.0 | 0.00 | 0.00 | 0.00 | 8 | 1013.8 |
| 20260502212949 | 54 | 266 | 10.0 | 12.0 | 0.00 | 0.00 | 0.00 | 8 | 1013.8 |
| 20260502212616 | 54 | 274 | 11.0 | 13.0 | 0.00 | 0.00 | 0.00 | 87 | 1014.0 |
| 20260502212037 | 54 | 259 | 10.0 | 13.0 | 0.00 | 0.00 | 0.00 | 87 | 1014.0 |
| 20260502211949 | 54 | 261 | 9.0 | 10.0 | 0.00 | 0.00 | 0.00 | 8 | 1013.9 |
| 20260502211423 | 54 | 251 | 8.0 | 10.0 | 0.00 | 0.00 | 0.00 | 87 | 1014.1 |
| 20260502210949 | 54 | 249 | 7.0 | 9.0 | 0.00 | 0.00 | 0.00 | 8 | 1014.0 |
| 20260502210823 | 54 | 249 | 7.0 | 10.0 | 0.00 | 0.00 | 0.00 | 87 | 1014.2 |
| 20260502210217 | 54 | 255 | 8.0 | 9.0 | 0.00 | 0.00 | 0.00 | 86 | 1014.2 |
| 20260502205949 | 54 | 248 | 7.0 | 9.0 | 0.00 | 0.00 | 0.00 | 8 | 1014.1 |
| 20260502205620 | 54 | 248 | 8.0 | 10.0 | 0.00 | 0.00 | 0.00 | 87 | 1014.3 |